Time,TemperatureF,DewpointF,PressureIn,WindDirection,WindDirectionDegrees,WindSpeedMPH,WindSpeedGustMPH,Humidity,HourlyPrecipIn,Conditions,Clouds,dailyrainin,SoftwareType,DateUTC
2013-11-06 00:03:00,54.8,44.0,29.76,SSE,162,8.0,8.0,67,0.00,,,0.00,Wunderground v.1.15,2013-11-06 06:03:00,
2013-11-06 00:09:00,54.8,44.0,29.76,SW,214,5.0,9.0,67,0.00,,,0.00,Wunderground v.1.15,2013-11-06 06:09:00,
2013-11-06 00:14:00,54.8,44.0,29.76,SSW,200,12.0,12.0,67,0.00,,,0.00,Wunderground v.1.15,2013-11-06 06:14:00,
2013-11-06 00:19:00,54.8,44.0,29.76,SSE,163,6.0,12.0,67,0.00,,,0.00,Wunderground v.1.15,2013-11-06 06:19:00,
2013-11-06 00:25:00,54.7,44.0,29.76,SSW,213,6.0,9.0,67,0.00,,,0.00,Wunderground v.1.15,2013-11-06 06:25:00,
2013-11-06 00:30:00,54.7,44.0,29.76,SSE,150,9.0,9.0,67,0.00,,,0.00,Wunderground v.1.15,2013-11-06 06:30:00,
2013-11-06 00:35:00,54.7,44.3,29.76,SSE,155,6.0,10.0,68,0.00,,,0.00,Wunderground v.1.15,2013-11-06 06:35:00,
2013-11-06 00:41:00,54.6,43.9,29.75,SSW,208,5.0,10.0,67,0.00,,,0.00,Wunderground v.1.15,2013-11-06 06:41:00,
2013-11-06 00:46:00,54.6,43.9,29.76,SSE,159,7.0,10.0,67,0.00,,,0.00,Wunderground v.1.15,2013-11-06 06:46:00,
2013-11-06 00:52:00,54.6,43.9,29.76,SSW,207,6.0,8.0,67,0.00,,,0.00,Wunderground v.1.15,2013-11-06 06:52:00,
2013-11-06 00:58:00,54.5,44.2,29.75,SSW,205,7.0,8.0,68,0.00,,,0.00,Wunderground v.1.15,2013-11-06 06:58:00,
2013-11-06 01:03:00,54.5,44.2,29.75,South,173,7.0,10.0,68,0.00,,,0.00,Wunderground v.1.15,2013-11-06 07:03:00,
2013-11-06 01:09:00,54.5,44.2,29.75,SSW,195,7.0,10.0,68,0.00,,,0.00,Wunderground v.1.15,2013-11-06 07:09:00,
2013-11-06 01:14:00,54.5,44.2,29.75,SSE,156,6.0,8.0,68,0.00,,,0.00,Wunderground v.1.15,2013-11-06 07:14:00,
2013-11-06 01:20:00,54.4,44.1,29.74,SSE,152,9.0,9.0,68,0.00,,,0.00,Wunderground v.1.15,2013-11-06 07:20:00,
2013-11-06 01:25:00,54.4,44.1,29.74,SW,218,9.0,9.0,68,0.00,,,0.00,Wunderground v.1.15,2013-11-06 07:25:00,
2013-11-06 01:31:00,54.4,44.1,29.74,SSE,167,7.0,9.0,68,0.00,,,0.00,Wunderground v.1.15,2013-11-06 07:31:00,
2013-11-06 01:36:00,54.4,44.1,29.74,South,186,8.0,10.0,68,0.00,,,0.00,Wunderground v.1.15,2013-11-06 07:36:00,
2013-11-06 01:41:00,54.3,44.0,29.74,SSE,153,8.0,10.0,68,0.00,,,0.00,Wunderground v.1.15,2013-11-06 07:41:00,
2013-11-06 01:46:00,54.4,44.1,29.73,South,169,6.0,10.0,68,0.00,,,0.00,Wunderground v.1.15,2013-11-06 07:46:00,
2013-11-06 01:52:00,54.3,44.0,29.73,SSE,149,5.0,9.0,68,0.00,,,0.00,Wunderground v.1.15,2013-11-06 07:52:00,
2013-11-06 01:57:00,54.2,43.9,29.73,SSE,158,6.0,10.0,68,0.00,,,0.00,Wunderground v.1.15,2013-11-06 07:57:00,
2013-11-06 02:02:00,54.2,43.9,29.73,SSE,159,13.0,13.0,68,0.00,,,0.00,Wunderground v.1.15,2013-11-06 08:02:00,
2013-11-06 02:07:00,54.1,43.8,29.73,SSE,162,8.0,13.0,68,0.00,,,0.00,Wunderground v.1.15,2013-11-06 08:07:00,
2013-11-06 02:12:00,54.0,43.7,29.72,SSE,155,7.0,10.0,68,0.00,,,0.00,Wunderground v.1.15,2013-11-06 08:12:00,
2013-11-06 02:17:00,54.0,43.7,29.72,South,186,6.0,11.0,68,0.00,,,0.00,Wunderground v.1.15,2013-11-06 08:17:00,
2013-11-06 02:22:00,54.0,43.7,29.72,SW,218,4.0,8.0,68,0.00,,,0.00,Wunderground v.1.15,2013-11-06 08:22:00,
2013-11-06 02:27:00,54.0,43.3,29.72,SSW,203,7.0,11.0,67,0.00,,,0.00,Wunderground v.1.15,2013-11-06 08:27:00,
2013-11-06 02:32:00,54.0,43.3,29.72,SW,217,8.0,10.0,67,0.00,,,0.00,Wunderground v.1.15,2013-11-06 08:32:00,
2013-11-06 02:37:00,54.1,43.8,29.72,SSE,163,6.0,16.0,68,0.00,,,0.00,Wunderground v.1.15,2013-11-06 08:37:00,
2013-11-06 02:42:00,54.1,43.4,29.71,SW,224,8.0,8.0,67,0.00,,,0.00,Wunderground v.1.15,2013-11-06 08:42:00,
2013-11-06 02:47:00,54.1,43.4,29.71,South,181,7.0,11.0,67,0.00,,,0.00,Wunderground v.1.15,2013-11-06 08:47:00,
2013-11-06 02:52:00,54.1,43.0,29.71,SSW,207,8.0,12.0,66,0.00,,,0.00,Wunderground v.1.15,2013-11-06 08:52:00,
2013-11-06 02:57:00,54.1,43.0,29.71,South,173,4.0,12.0,66,0.00,,,0.00,Wunderground v.1.15,2013-11-06 08:57:00,
2013-11-06 03:02:00,54.1,43.0,29.71,SW,232,6.0,8.0,66,0.00,,,0.00,Wunderground v.1.15,2013-11-06 09:02:00,
2013-11-06 03:07:00,54.1,43.0,29.71,South,180,4.0,9.0,66,0.00,,,0.00,Wunderground v.1.15,2013-11-06 09:07:00,
2013-11-06 03:12:00,54.2,43.1,29.71,SSW,204,6.0,10.0,66,0.00,,,0.00,Wunderground v.1.15,2013-11-06 09:12:00,
2013-11-06 03:17:00,54.2,43.1,29.70,SSW,193,6.0,11.0,66,0.00,,,0.00,Wunderground v.1.15,2013-11-06 09:17:00,
2013-11-06 03:22:00,54.3,43.2,29.70,SE,145,10.0,10.0,66,0.00,,,0.00,Wunderground v.1.15,2013-11-06 09:22:00,
2013-11-06 03:27:00,54.3,43.2,29.69,SSE,162,8.0,13.0,66,0.00,,,0.00,Wunderground v.1.15,2013-11-06 09:27:00,
2013-11-06 03:32:00,54.3,42.8,29.69,SSW,207,5.0,12.0,65,0.00,,,0.00,Wunderground v.1.15,2013-11-06 09:32:00,
2013-11-06 03:37:00,54.4,42.5,29.69,SE,146,11.0,12.0,64,0.00,,,0.00,Wunderground v.1.15,2013-11-06 09:37:00,
2013-11-06 03:43:00,54.5,42.2,29.69,SSW,192,7.0,11.0,63,0.00,,,0.00,Wunderground v.1.15,2013-11-06 09:43:00,
2013-11-06 03:48:00,54.6,42.3,29.69,SSW,198,4.0,11.0,63,0.00,,,0.00,Wunderground v.1.15,2013-11-06 09:48:00,
2013-11-06 03:53:00,54.7,41.9,29.69,SSW,210,4.0,15.0,62,0.00,,,0.00,Wunderground v.1.15,2013-11-06 09:53:00,
2013-11-06 03:58:00,54.8,42.0,29.69,SSW,204,7.0,15.0,62,0.00,,,0.00,Wunderground v.1.15,2013-11-06 09:58:00,
2013-11-06 04:03:00,54.9,42.1,29.69,SSE,153,11.0,17.0,62,0.00,,,0.00,Wunderground v.1.15,2013-11-06 10:03:00,
2013-11-06 04:08:00,54.9,41.7,29.70,SSW,207,10.0,17.0,61,0.00,,,0.00,Wunderground v.1.15,2013-11-06 10:08:00,
2013-11-06 04:13:00,54.9,42.1,29.69,South,190,6.0,14.0,62,0.00,,,0.00,Wunderground v.1.15,2013-11-06 10:13:00,
2013-11-06 04:18:00,54.9,41.7,29.69,South,170,8.0,17.0,61,0.00,,,0.00,Wunderground v.1.15,2013-11-06 10:18:00,
2013-11-06 04:23:00,54.8,41.6,29.69,SSW,193,10.0,14.0,61,0.00,,,0.00,Wunderground v.1.15,2013-11-06 10:23:00,
2013-11-06 04:28:00,54.8,41.6,29.69,South,183,9.0,14.0,61,0.00,,,0.00,Wunderground v.1.15,2013-11-06 10:28:00,
2013-11-06 04:33:00,54.8,42.0,29.70,SSW,212,8.0,9.0,62,0.00,,,0.00,Wunderground v.1.15,2013-11-06 10:33:00,
2013-11-06 04:38:00,54.7,41.5,29.69,South,189,6.0,14.0,61,0.00,,,0.00,Wunderground v.1.15,2013-11-06 10:38:00,
2013-11-06 04:43:00,54.6,41.8,29.70,SW,226,8.0,14.0,62,0.00,,,0.00,Wunderground v.1.15,2013-11-06 10:43:00,
2013-11-06 04:48:00,54.6,41.8,29.69,SE,143,5.0,14.0,62,0.00,,,0.00,Wunderground v.1.15,2013-11-06 10:48:00,
2013-11-06 04:53:00,54.6,41.8,29.69,SSE,160,8.0,12.0,62,0.00,,,0.00,Wunderground v.1.15,2013-11-06 10:53:00,
2013-11-06 04:58:00,54.5,41.7,29.69,SSW,204,6.0,12.0,62,0.00,,,0.00,Wunderground v.1.15,2013-11-06 10:58:00,
2013-11-06 05:03:00,54.4,41.6,29.69,SSW,203,5.0,8.0,62,0.00,,,0.00,Wunderground v.1.15,2013-11-06 11:03:00,
2013-11-06 05:08:00,54.3,42.0,29.69,SSW,212,6.0,10.0,63,0.00,,,0.00,Wunderground v.1.15,2013-11-06 11:08:00,
2013-11-06 05:13:00,54.2,41.9,29.69,SSW,200,8.0,11.0,63,0.00,,,0.00,Wunderground v.1.15,2013-11-06 11:13:00,
2013-11-06 05:18:00,54.2,41.9,29.69,SSE,150,9.0,12.0,63,0.00,,,0.00,Wunderground v.1.15,2013-11-06 11:18:00,
2013-11-06 05:23:00,54.2,41.9,29.69,South,181,10.0,13.0,63,0.00,,,0.00,Wunderground v.1.15,2013-11-06 11:23:00,
2013-11-06 05:28:00,54.1,41.8,29.69,SSW,200,8.0,13.0,63,0.00,,,0.00,Wunderground v.1.15,2013-11-06 11:28:00,
2013-11-06 05:33:00,54.1,41.8,29.68,South,170,6.0,13.0,63,0.00,,,0.00,Wunderground v.1.15,2013-11-06 11:33:00,
2013-11-06 05:38:00,54.0,41.7,29.68,SSE,163,8.0,13.0,63,0.00,,,0.00,Wunderground v.1.15,2013-11-06 11:38:00,
2013-11-06 05:43:00,54.0,42.1,29.68,SSE,155,8.0,12.0,64,0.00,,,0.00,Wunderground v.1.15,2013-11-06 11:43:00,
2013-11-06 05:48:00,54.0,42.1,29.68,South,177,8.0,12.0,64,0.00,,,0.00,Wunderground v.1.15,2013-11-06 11:48:00,
2013-11-06 05:53:00,54.0,42.1,29.68,SSW,198,9.0,11.0,64,0.00,,,0.00,Wunderground v.1.15,2013-11-06 11:53:00,
2013-11-06 05:58:00,54.0,42.1,29.68,SSE,162,12.0,17.0,64,0.00,,,0.00,Wunderground v.1.15,2013-11-06 11:58:00,
2013-11-06 06:03:00,54.1,42.2,29.68,South,180,9.0,15.0,64,0.00,,,0.00,Wunderground v.1.15,2013-11-06 12:03:00,
2013-11-06 06:08:00,54.1,42.6,29.68,SE,145,11.0,16.0,65,0.00,,,0.00,Wunderground v.1.15,2013-11-06 12:08:00,
2013-11-06 06:13:00,54.1,42.2,29.68,SSW,200,10.0,13.0,64,0.00,,,0.00,Wunderground v.1.15,2013-11-06 12:13:00,
2013-11-06 06:18:00,54.1,42.2,29.68,SSE,150,7.0,13.0,64,0.00,,,0.00,Wunderground v.1.15,2013-11-06 12:18:00,
2013-11-06 06:23:00,54.1,42.6,29.67,SSW,192,8.0,13.0,65,0.00,,,0.00,Wunderground v.1.15,2013-11-06 12:23:00,
2013-11-06 06:28:00,54.1,42.6,29.67,South,186,8.0,14.0,65,0.00,,,0.00,Wunderground v.1.15,2013-11-06 12:28:00,
2013-11-06 06:33:00,54.2,42.7,29.67,SSE,155,10.0,18.0,65,0.00,,,0.00,Wunderground v.1.15,2013-11-06 12:33:00,
2013-11-06 06:38:00,54.3,42.8,29.67,South,180,8.0,18.0,65,0.00,,,0.00,Wunderground v.1.15,2013-11-06 12:38:00,
2013-11-06 06:43:00,54.4,42.9,29.67,SE,144,11.0,14.0,65,0.00,,,0.00,Wunderground v.1.15,2013-11-06 12:43:00,
2013-11-06 06:49:00,54.4,43.3,29.67,SE,139,9.0,16.0,66,0.00,,,0.00,Wunderground v.1.15,2013-11-06 12:49:00,
2013-11-06 06:54:00,54.5,43.4,29.67,SSW,206,11.0,14.0,66,0.00,,,0.00,Wunderground v.1.15,2013-11-06 12:54:00,
2013-11-06 06:59:00,54.6,43.9,29.67,South,190,8.0,14.0,67,0.00,,,0.00,Wunderground v.1.15,2013-11-06 12:59:00,
2013-11-06 07:04:00,54.6,43.9,29.67,SW,223,10.0,17.0,67,0.00,,,0.00,Wunderground v.1.15,2013-11-06 13:04:00,
2013-11-06 07:09:00,54.7,44.0,29.67,SSE,165,5.0,17.0,67,0.00,,,0.00,Wunderground v.1.15,2013-11-06 13:09:00,
2013-11-06 07:14:00,54.6,44.2,29.67,SSW,208,10.0,15.0,68,0.00,,,0.00,Wunderground v.1.15,2013-11-06 13:14:00,
2013-11-06 07:19:00,54.5,44.5,29.67,SSW,193,8.0,15.0,69,0.00,,,0.00,Wunderground v.1.15,2013-11-06 13:19:00,
2013-11-06 07:24:00,54.4,44.8,29.67,South,169,12.0,14.0,70,0.00,,,0.00,Wunderground v.1.15,2013-11-06 13:24:00,
2013-11-06 07:29:00,54.3,45.1,29.68,SSW,193,5.0,14.0,71,0.00,,,0.00,Wunderground v.1.15,2013-11-06 13:29:00,
2013-11-06 07:34:00,54.2,45.4,29.68,SW,215,7.0,14.0,72,0.00,,,0.00,Wunderground v.1.15,2013-11-06 13:34:00,
2013-11-06 07:39:00,54.2,45.4,29.68,SSE,167,11.0,14.0,72,0.00,,,0.00,Wunderground v.1.15,2013-11-06 13:39:00,
2013-11-06 07:44:00,54.1,45.6,29.68,SSW,201,7.0,17.0,73,0.00,,,0.00,Wunderground v.1.15,2013-11-06 13:44:00,
2013-11-06 07:49:00,54.3,45.8,29.68,SW,224,9.0,17.0,73,0.00,,,0.00,Wunderground v.1.15,2013-11-06 13:49:00,
2013-11-06 07:54:00,54.4,46.3,29.69,SSW,205,4.0,16.0,74,0.00,,,0.00,Wunderground v.1.15,2013-11-06 13:54:00,
2013-11-06 07:59:00,54.4,46.3,29.68,SSW,204,4.0,16.0,74,0.00,,,0.00,Wunderground v.1.15,2013-11-06 13:59:00,
2013-11-06 08:04:00,54.1,46.7,29.68,SSW,207,7.0,8.0,76,0.00,,,0.00,Wunderground v.1.15,2013-11-06 14:04:00,
2013-11-06 08:09:00,53.9,46.9,29.69,SSW,211,6.0,12.0,77,0.00,,,0.00,Wunderground v.1.15,2013-11-06 14:09:00,
2013-11-06 08:14:00,53.6,46.9,29.69,SSE,155,4.0,9.0,78,0.00,,,0.00,Wunderground v.1.15,2013-11-06 14:14:00,
2013-11-06 08:20:00,53.3,47.3,29.68,SSW,197,6.0,6.0,80,0.00,,,0.00,Wunderground v.1.15,2013-11-06 14:20:00,
2013-11-06 08:25:00,53.0,47.7,29.68,SW,235,5.0,8.0,82,0.00,,,0.00,Wunderground v.1.15,2013-11-06 14:25:00,
2013-11-06 08:30:00,52.8,47.8,29.68,South,174,5.0,5.0,83,0.00,,,0.00,Wunderground v.1.15,2013-11-06 14:30:00,
2013-11-06 08:35:00,52.7,47.7,29.69,SW,217,5.0,9.0,83,0.00,,,0.00,Wunderground v.1.15,2013-11-06 14:35:00,
2013-11-06 08:40:00,52.6,47.9,29.69,WSW,242,6.0,8.0,84,0.00,,,0.00,Wunderground v.1.15,2013-11-06 14:40:00,
2013-11-06 08:45:00,52.5,48.1,29.69,SW,227,3.0,8.0,85,0.00,,,0.00,Wunderground v.1.15,2013-11-06 14:45:00,
2013-11-06 08:50:00,52.4,48.0,29.69,South,180,5.0,5.0,85,0.00,,,0.00,Wunderground v.1.15,2013-11-06 14:50:00,
2013-11-06 08:55:00,52.3,48.2,29.70,SSE,161,6.0,8.0,86,0.00,,,0.00,Wunderground v.1.15,2013-11-06 14:55:00,
2013-11-06 09:00:00,52.1,48.3,29.71,WSW,252,8.0,8.0,87,0.00,,,0.00,Wunderground v.1.15,2013-11-06 15:00:00,
2013-11-06 09:05:00,51.9,48.5,29.71,SSW,194,8.0,9.0,88,0.00,,,0.00,Wunderground v.1.15,2013-11-06 15:05:00,
2013-11-06 09:10:00,51.7,48.6,29.70,WSW,246,5.0,7.0,89,0.00,,,0.00,Wunderground v.1.15,2013-11-06 15:10:00,
2013-11-06 09:15:00,51.6,48.5,29.70,SSE,154,3.0,8.0,89,0.00,,,0.00,Wunderground v.1.15,2013-11-06 15:15:00,
2013-11-06 09:20:00,51.5,48.7,29.70,SW,235,4.0,5.0,90,0.00,,,0.00,Wunderground v.1.15,2013-11-06 15:20:00,
2013-11-06 09:25:00,51.4,48.6,29.70,SSW,207,2.0,5.0,90,0.00,,,0.00,Wunderground v.1.15,2013-11-06 15:25:00,
2013-11-06 09:30:00,51.4,48.9,29.70,SW,216,6.0,7.0,91,0.00,,,0.00,Wunderground v.1.15,2013-11-06 15:30:00,
2013-11-06 09:35:00,51.3,48.8,29.70,South,176,2.0,8.0,91,0.00,,,0.00,Wunderground v.1.15,2013-11-06 15:35:00,
2013-11-06 09:40:00,51.3,49.1,29.69,SSE,167,4.0,7.0,92,0.00,,,0.00,Wunderground v.1.15,2013-11-06 15:40:00,
2013-11-06 09:45:00,51.3,49.1,29.68,South,170,4.0,8.0,92,0.00,,,0.00,Wunderground v.1.15,2013-11-06 15:45:00,
2013-11-06 09:50:00,51.4,49.2,29.69,SSE,162,4.0,5.0,92,0.00,,,0.00,Wunderground v.1.15,2013-11-06 15:50:00,
2013-11-06 09:56:00,51.4,49.4,29.68,SSE,167,4.0,7.0,93,0.00,,,0.00,Wunderground v.1.15,2013-11-06 15:56:00,
2013-11-06 10:00:00,51.4,49.4,29.69,SSW,205,8.0,8.0,93,0.00,,,0.00,Wunderground v.1.15,2013-11-06 16:00:00,
2013-11-06 10:05:00,51.4,49.4,29.69,SSE,167,7.0,8.0,93,0.00,,,0.00,Wunderground v.1.15,2013-11-06 16:05:00,
2013-11-06 10:10:00,51.4,49.4,29.69,SW,218,4.0,6.0,93,0.00,,,0.00,Wunderground v.1.15,2013-11-06 16:10:00,
2013-11-06 10:16:00,51.4,49.4,29.69,SSW,210,4.0,12.0,93,0.00,,,0.00,Wunderground v.1.15,2013-11-06 16:16:00,
2013-11-06 10:21:00,51.4,49.4,29.68,South,181,8.0,12.0,93,0.00,,,0.00,Wunderground v.1.15,2013-11-06 16:21:00,
2013-11-06 10:26:00,51.5,49.5,29.68,SW,216,5.0,12.0,93,0.00,,,0.00,Wunderground v.1.15,2013-11-06 16:26:00,
2013-11-06 10:31:00,51.5,49.5,29.70,WSW,255,8.0,12.0,93,0.00,,,0.00,Wunderground v.1.15,2013-11-06 16:31:00,
2013-11-06 10:36:00,51.7,49.7,29.70,SSW,212,7.0,12.0,93,0.00,,,0.00,Wunderground v.1.15,2013-11-06 16:36:00,
2013-11-06 10:41:00,51.8,49.8,29.69,SW,217,6.0,7.0,93,0.00,,,0.00,Wunderground v.1.15,2013-11-06 16:41:00,
2013-11-06 10:46:00,51.8,49.8,29.69,SSW,209,5.0,17.0,93,0.00,,,0.00,Wunderground v.1.15,2013-11-06 16:46:00,
2013-11-06 10:51:00,51.9,49.9,29.69,SSW,204,4.0,12.0,93,0.00,,,0.00,Wunderground v.1.15,2013-11-06 16:51:00,
2013-11-06 10:56:00,51.9,49.9,29.69,WSW,243,3.0,12.0,93,0.00,,,0.00,Wunderground v.1.15,2013-11-06 16:56:00,
2013-11-06 11:01:00,51.9,49.9,29.68,SE,136,3.0,6.0,93,0.00,,,0.00,Wunderground v.1.15,2013-11-06 17:01:00,
2013-11-06 11:06:00,51.9,49.9,29.68,South,184,5.0,7.0,93,0.00,,,0.00,Wunderground v.1.15,2013-11-06 17:06:00,
2013-11-06 11:11:00,52.0,50.0,29.68,SSE,163,4.0,4.0,93,0.00,,,0.00,Wunderground v.1.15,2013-11-06 17:11:00,
2013-11-06 11:16:00,52.0,50.0,29.67,SW,233,5.0,6.0,93,0.00,,,0.00,Wunderground v.1.15,2013-11-06 17:16:00,
2013-11-06 11:21:00,52.1,50.1,29.67,SSE,150,5.0,6.0,93,0.00,,,0.00,Wunderground v.1.15,2013-11-06 17:21:00,
2013-11-06 11:26:00,52.1,50.4,29.66,South,176,7.0,9.0,94,0.00,,,0.00,Wunderground v.1.15,2013-11-06 17:26:00,
2013-11-06 11:31:00,52.3,50.3,29.66,SW,233,3.0,7.0,93,0.00,,,0.00,Wunderground v.1.15,2013-11-06 17:31:00,
2013-11-06 11:36:00,52.4,50.4,29.67,SW,232,4.0,11.0,93,0.00,,,0.00,Wunderground v.1.15,2013-11-06 17:36:00,
2013-11-06 11:41:00,52.5,50.5,29.66,South,191,6.0,7.0,93,0.00,,,0.00,Wunderground v.1.15,2013-11-06 17:41:00,
2013-11-06 11:46:00,52.6,50.6,29.66,WSW,256,3.0,7.0,93,0.00,,,0.00,Wunderground v.1.15,2013-11-06 17:46:00,
2013-11-06 11:51:00,52.7,50.7,29.67,SW,219,4.0,5.0,93,0.00,,,0.00,Wunderground v.1.15,2013-11-06 17:51:00,
2013-11-06 11:56:00,52.8,50.8,29.67,West,280,3.0,5.0,93,0.00,,,0.00,Wunderground v.1.15,2013-11-06 17:56:00,
2013-11-06 12:01:00,52.8,50.8,29.67,SW,236,7.0,7.0,93,0.00,,,0.00,Wunderground v.1.15,2013-11-06 18:01:00,
2013-11-06 12:06:00,52.8,50.5,29.66,South,172,3.0,8.0,92,0.00,,,0.00,Wunderground v.1.15,2013-11-06 18:06:00,
2013-11-06 12:11:00,52.9,50.6,29.66,SW,230,2.0,5.0,92,0.00,,,0.00,Wunderground v.1.15,2013-11-06 18:11:00,
2013-11-06 12:16:00,53.0,51.0,29.66,SSW,197,1.0,5.0,93,0.00,,,0.00,Wunderground v.1.15,2013-11-06 18:16:00,
2013-11-06 12:21:00,53.0,51.0,29.66,SSW,194,3.0,3.0,93,0.00,,,0.00,Wunderground v.1.15,2013-11-06 18:21:00,
2013-11-06 12:26:00,53.1,51.1,29.65,SSE,165,3.0,4.0,93,0.00,,,0.00,Wunderground v.1.15,2013-11-06 18:26:00,
2013-11-06 12:31:00,53.1,51.1,29.65,SSE,158,3.0,4.0,93,0.00,,,0.00,Wunderground v.1.15,2013-11-06 18:31:00,
2013-11-06 12:36:00,53.2,51.2,29.65,SW,226,7.0,8.0,93,0.00,,,0.00,Wunderground v.1.15,2013-11-06 18:36:00,
2013-11-06 12:41:00,53.3,51.3,29.65,SW,228,3.0,4.0,93,0.00,,,0.00,Wunderground v.1.15,2013-11-06 18:41:00,
2013-11-06 12:46:00,53.3,51.3,29.66,WSW,245,2.0,6.0,93,0.00,,,0.00,Wunderground v.1.15,2013-11-06 18:46:00,
2013-11-06 12:51:00,53.4,51.4,29.66,West,263,2.0,3.0,93,0.00,,,0.00,Wunderground v.1.15,2013-11-06 18:51:00,
2013-11-06 12:56:00,53.4,51.4,29.66,WSW,246,2.0,4.0,93,0.00,,,0.00,Wunderground v.1.15,2013-11-06 18:56:00,
2013-11-06 13:01:00,53.5,51.5,29.65,West,267,5.0,5.0,93,0.00,,,0.00,Wunderground v.1.15,2013-11-06 19:01:00,
2013-11-06 13:06:00,53.5,51.5,29.65,SW,225,3.0,5.0,93,0.00,,,0.00,Wunderground v.1.15,2013-11-06 19:06:00,
2013-11-06 13:11:00,53.6,51.6,29.65,SW,223,3.0,4.0,93,0.00,,,0.00,Wunderground v.1.15,2013-11-06 19:11:00,
2013-11-06 13:16:00,53.6,51.6,29.65,West,259,3.0,4.0,93,0.00,,,0.00,Wunderground v.1.15,2013-11-06 19:16:00,
2013-11-06 13:21:00,53.6,51.6,29.65,WSW,240,3.0,4.0,93,0.00,,,0.00,Wunderground v.1.15,2013-11-06 19:21:00,
2013-11-06 13:26:00,53.7,51.7,29.66,WSW,239,1.0,4.0,93,0.00,,,0.00,Wunderground v.1.15,2013-11-06 19:26:00,
2013-11-06 13:31:00,53.7,51.7,29.65,WSW,242,3.0,3.0,93,0.00,,,0.00,Wunderground v.1.15,2013-11-06 19:31:00,
2013-11-06 13:36:00,53.8,51.8,29.65,WNW,287,2.0,4.0,93,0.00,,,0.00,Wunderground v.1.15,2013-11-06 19:36:00,
2013-11-06 13:41:00,53.8,51.8,29.65,SW,221,2.0,6.0,93,0.00,,,0.00,Wunderground v.1.15,2013-11-06 19:41:00,
2013-11-06 13:46:00,53.9,51.9,29.65,WSW,253,3.0,7.0,93,0.00,,,0.00,Wunderground v.1.15,2013-11-06 19:46:00,
2013-11-06 13:51:00,54.0,52.0,29.65,SW,231,6.0,6.0,93,0.00,,,0.00,Wunderground v.1.15,2013-11-06 19:51:00,
2013-11-06 13:56:00,54.1,52.1,29.65,SW,217,3.0,6.0,93,0.00,,,0.00,Wunderground v.1.15,2013-11-06 19:56:00,
2013-11-06 14:01:00,54.1,52.1,29.65,SW,221,3.0,3.0,93,0.00,,,0.00,Wunderground v.1.15,2013-11-06 20:01:00,
2013-11-06 14:06:00,54.2,52.2,29.65,WSW,252,6.0,7.0,93,0.00,,,0.00,Wunderground v.1.15,2013-11-06 20:06:00,
2013-11-06 14:11:00,54.2,52.2,29.65,WSW,255,3.0,6.0,93,0.00,,,0.00,Wunderground v.1.15,2013-11-06 20:11:00,
2013-11-06 14:16:00,54.2,52.2,29.66,WSW,239,4.0,8.0,93,0.00,,,0.00,Wunderground v.1.15,2013-11-06 20:16:00,
2013-11-06 14:21:00,54.3,52.3,29.65,SSW,200,4.0,6.0,93,0.00,,,0.00,Wunderground v.1.15,2013-11-06 20:21:00,
2013-11-06 14:26:00,54.3,52.3,29.65,SW,231,3.0,6.0,93,0.00,,,0.00,Wunderground v.1.15,2013-11-06 20:26:00,
2013-11-06 14:31:00,54.3,52.3,29.65,SSW,207,1.0,3.0,93,0.00,,,0.00,Wunderground v.1.15,2013-11-06 20:31:00,
2013-11-06 14:36:00,54.3,52.3,29.65,SW,217,3.0,9.0,93,0.00,,,0.00,Wunderground v.1.15,2013-11-06 20:36:00,
2013-11-06 14:41:00,54.3,52.0,29.65,South,179,2.0,6.0,92,0.00,,,0.00,Wunderground v.1.15,2013-11-06 20:41:00,
2013-11-06 14:46:00,54.4,52.4,29.65,SSW,206,3.0,6.0,93,0.00,,,0.00,Wunderground v.1.15,2013-11-06 20:46:00,
2013-11-06 14:51:00,54.4,52.1,29.65,SSE,154,4.0,4.0,92,0.00,,,0.00,Wunderground v.1.15,2013-11-06 20:51:00,
2013-11-06 14:57:00,54.4,52.1,29.65,WSW,241,6.0,6.0,92,0.00,,,0.00,Wunderground v.1.15,2013-11-06 20:57:00,
2013-11-06 15:02:00,54.4,52.1,29.66,SSW,210,4.0,6.0,92,0.00,,,0.00,Wunderground v.1.15,2013-11-06 21:02:00,
2013-11-06 15:07:00,54.4,52.1,29.66,WSW,245,6.0,7.0,92,0.00,,,0.00,Wunderground v.1.15,2013-11-06 21:07:00,
2013-11-06 15:12:00,54.5,52.2,29.66,SW,233,3.0,6.0,92,0.00,,,0.00,Wunderground v.1.15,2013-11-06 21:12:00,
2013-11-06 15:17:00,54.5,52.2,29.66,SW,218,3.0,7.0,92,0.00,,,0.00,Wunderground v.1.15,2013-11-06 21:17:00,
2013-11-06 15:22:00,54.5,52.2,29.66,WSW,258,4.0,6.0,92,0.00,,,0.00,Wunderground v.1.15,2013-11-06 21:22:00,
2013-11-06 15:27:00,54.4,52.1,29.66,SW,236,3.0,6.0,92,0.00,,,0.00,Wunderground v.1.15,2013-11-06 21:27:00,
2013-11-06 15:32:00,54.3,52.3,29.66,SW,228,2.0,4.0,93,0.00,,,0.00,Wunderground v.1.15,2013-11-06 21:32:00,
2013-11-06 15:37:00,54.2,52.2,29.67,WSW,243,4.0,6.0,93,0.00,,,0.00,Wunderground v.1.15,2013-11-06 21:37:00,
2013-11-06 15:42:00,54.0,52.3,29.67,SW,232,4.0,6.0,94,0.00,,,0.00,Wunderground v.1.15,2013-11-06 21:42:00,
2013-11-06 15:47:00,53.9,52.2,29.67,SW,232,2.0,6.0,94,0.00,,,0.00,Wunderground v.1.15,2013-11-06 21:47:00,
2013-11-06 15:52:00,53.9,52.2,29.67,WSW,245,2.0,2.0,94,0.00,,,0.00,Wunderground v.1.15,2013-11-06 21:52:00,
2013-11-06 15:57:00,53.8,52.1,29.67,WSW,257,2.0,3.0,94,0.00,,,0.00,Wunderground v.1.15,2013-11-06 21:57:00,
2013-11-06 16:02:00,53.8,52.4,29.66,SW,231,0.0,3.0,95,0.00,,,0.00,Wunderground v.1.15,2013-11-06 22:02:00,
2013-11-06 16:07:00,53.7,52.3,29.66,West,274,1.0,3.0,95,0.00,,,0.00,Wunderground v.1.15,2013-11-06 22:07:00,
2013-11-06 16:12:00,53.7,52.3,29.67,SW,234,0.0,1.0,95,0.00,,,0.00,Wunderground v.1.15,2013-11-06 22:12:00,
2013-11-06 16:17:00,53.6,52.2,29.67,West,269,0.0,1.0,95,0.00,,,0.00,Wunderground v.1.15,2013-11-06 22:17:00,
2013-11-06 16:22:00,53.6,52.2,29.67,West,263,0.0,0.0,95,0.00,,,0.00,Wunderground v.1.15,2013-11-06 22:22:00,
2013-11-06 16:27:00,53.6,52.2,29.67,WSW,248,0.0,1.0,95,0.00,,,0.00,Wunderground v.1.15,2013-11-06 22:27:00,
2013-11-06 16:32:00,53.6,52.2,29.67,South,175,0.0,0.0,95,0.00,,,0.00,Wunderground v.1.15,2013-11-06 22:32:00,
2013-11-06 16:37:00,53.6,52.2,29.67,SSW,200,0.0,0.0,95,0.00,,,0.00,Wunderground v.1.15,2013-11-06 22:37:00,
2013-11-06 16:42:00,53.6,52.2,29.67,SSW,205,0.0,0.0,95,0.00,,,0.00,Wunderground v.1.15,2013-11-06 22:42:00,
2013-11-06 16:47:00,53.6,52.2,29.67,WNW,290,0.0,1.0,95,0.00,,,0.00,Wunderground v.1.15,2013-11-06 22:47:00,
2013-11-06 16:52:00,53.6,52.2,29.67,West,264,2.0,4.0,95,0.00,,,0.00,Wunderground v.1.15,2013-11-06 22:52:00,
2013-11-06 16:57:00,53.6,52.2,29.67,West,260,1.0,5.0,95,0.00,,,0.00,Wunderground v.1.15,2013-11-06 22:57:00,
2013-11-06 17:02:00,52.6,50.0,29.69,NNW,330,12.0,14.0,91,0.00,,,0.00,Wunderground v.1.15,2013-11-06 23:02:00,
2013-11-06 17:08:00,50.6,48.1,29.69,NW,315,11.0,16.0,91,0.00,,,0.00,Wunderground v.1.15,2013-11-06 23:08:00,
2013-11-06 17:13:00,49.6,47.4,29.69,North,357,12.0,16.0,92,0.00,,,0.00,Wunderground v.1.15,2013-11-06 23:13:00,
2013-11-06 17:18:00,49.1,47.2,29.69,NNE,24,14.0,17.0,93,0.00,,,0.00,Wunderground v.1.15,2013-11-06 23:18:00,
2013-11-06 17:23:00,48.8,46.9,29.70,North,6,7.0,13.0,93,0.00,,,0.00,Wunderground v.1.15,2013-11-06 23:23:00,
2013-11-06 17:28:00,48.5,46.6,29.70,North,356,10.0,16.0,93,0.00,,,0.00,Wunderground v.1.15,2013-11-06 23:28:00,
2013-11-06 17:33:00,48.2,46.3,29.71,North,9,10.0,21.0,93,0.00,,,0.00,Wunderground v.1.15,2013-11-06 23:33:00,
2013-11-06 17:38:00,48.0,45.8,29.71,NNW,334,16.0,21.0,92,0.00,,,0.00,Wunderground v.1.15,2013-11-06 23:38:00,
2013-11-06 17:43:00,47.6,45.7,29.72,North,1,10.0,18.0,93,0.00,,,0.00,Wunderground v.1.15,2013-11-06 23:43:00,
2013-11-06 17:48:00,47.4,45.8,29.73,NNW,330,11.0,18.0,94,0.00,,,0.00,Wunderground v.1.15,2013-11-06 23:48:00,
2013-11-06 17:53:00,46.4,44.2,29.74,NNE,12,6.0,14.0,92,0.00,,,0.00,Wunderground v.1.15,2013-11-06 23:53:00,
2013-11-06 17:58:00,45.7,43.5,29.74,NW,322,5.0,14.0,92,0.00,,,0.00,Wunderground v.1.15,2013-11-06 23:58:00,
2013-11-06 18:03:00,45.1,43.2,29.73,NW,304,13.0,17.0,93,0.00,,,0.00,Wunderground v.1.15,2013-11-07 00:03:00,
2013-11-06 18:09:00,44.9,43.3,29.74,WNW,302,7.0,17.0,94,0.00,,,0.00,Wunderground v.1.15,2013-11-07 00:09:00,
2013-11-06 18:14:00,44.8,43.2,29.74,North,357,7.0,11.0,94,0.00,,,0.00,Wunderground v.1.15,2013-11-07 00:14:00,
2013-11-06 18:18:00,44.7,43.1,29.74,NW,325,6.0,11.0,94,0.00,,,0.00,Wunderground v.1.15,2013-11-07 00:18:00,
2013-11-06 18:24:00,44.7,43.4,29.75,NNE,25,9.0,11.0,95,0.00,,,0.00,Wunderground v.1.15,2013-11-07 00:24:00,
2013-11-06 18:29:00,44.7,43.4,29.76,North,352,15.0,15.0,95,0.00,,,0.00,Wunderground v.1.15,2013-11-07 00:29:00,
2013-11-06 18:34:00,44.4,42.8,29.76,North,5,14.0,21.0,94,0.00,,,0.00,Wunderground v.1.15,2013-11-07 00:34:00,
2013-11-06 18:39:00,43.7,41.0,29.76,NNE,13,10.0,21.0,90,0.00,,,0.00,Wunderground v.1.15,2013-11-07 00:39:00,
2013-11-06 18:44:00,43.3,40.6,29.77,NNW,333,19.0,22.0,90,0.00,,,0.00,Wunderground v.1.15,2013-11-07 00:44:00,
2013-11-06 18:49:00,43.1,40.7,29.78,NNW,336,9.0,22.0,91,0.00,,,0.00,Wunderground v.1.15,2013-11-07 00:49:00,
2013-11-06 18:54:00,42.9,40.2,29.77,NNW,342,7.0,17.0,90,0.00,,,0.00,Wunderground v.1.15,2013-11-07 00:54:00,
2013-11-06 18:59:00,42.7,40.3,29.78,North,5,9.0,17.0,91,0.00,,,0.00,Wunderground v.1.15,2013-11-07 00:59:00,
2013-11-06 19:04:00,42.6,40.2,29.77,North,350,12.0,17.0,91,0.00,,,0.00,Wunderground v.1.15,2013-11-07 01:04:00,
2013-11-06 19:09:00,42.6,40.2,29.77,North,356,10.0,19.0,91,0.00,,,0.00,Wunderground v.1.15,2013-11-07 01:09:00,
2013-11-06 19:14:00,42.4,39.7,29.77,North,11,10.0,21.0,90,0.00,,,0.00,Wunderground v.1.15,2013-11-07 01:14:00,
2013-11-06 19:19:00,42.1,39.7,29.77,NNW,336,11.0,21.0,91,0.00,,,0.00,Wunderground v.1.15,2013-11-07 01:19:00,
2013-11-06 19:24:00,42.1,39.9,29.79,NNW,341,9.0,13.0,92,0.00,,,0.00,Wunderground v.1.15,2013-11-07 01:24:00,
2013-11-06 19:29:00,41.9,39.7,29.79,North,11,13.0,14.0,92,0.00,,,0.00,Wunderground v.1.15,2013-11-07 01:29:00,
2013-11-06 19:34:00,41.7,39.3,29.78,NNE,29,9.0,15.0,91,0.00,,,0.00,Wunderground v.1.15,2013-11-07 01:34:00,
2013-11-06 19:39:00,41.5,39.3,29.78,NNW,347,8.0,15.0,92,0.00,,,0.00,Wunderground v.1.15,2013-11-07 01:39:00,
2013-11-06 19:44:00,41.4,39.3,29.78,North,11,15.0,19.0,92,0.00,,,0.00,Wunderground v.1.15,2013-11-07 01:44:00,
2013-11-06 19:49:00,41.4,39.3,29.78,NNE,16,14.0,21.0,92,0.00,,,0.00,Wunderground v.1.15,2013-11-07 01:49:00,
2013-11-06 19:54:00,41.2,38.8,29.79,North,356,9.0,15.0,91,0.00,,,0.00,Wunderground v.1.15,2013-11-07 01:54:00,
2013-11-06 19:59:00,41.1,38.4,29.80,NW,326,8.0,17.0,90,0.00,,,0.00,Wunderground v.1.15,2013-11-07 01:59:00,
2013-11-06 20:04:00,40.9,38.2,29.79,North,357,8.0,14.0,90,0.00,,,0.00,Wunderground v.1.15,2013-11-07 02:04:00,
2013-11-06 20:10:00,40.9,38.5,29.79,North,351,9.0,9.0,91,0.00,,,0.00,Wunderground v.1.15,2013-11-07 02:10:00,
2013-11-06 20:15:00,40.7,38.3,29.80,North,350,7.0,13.0,91,0.00,,,0.00,Wunderground v.1.15,2013-11-07 02:15:00,
2013-11-06 20:20:00,40.7,38.3,29.79,North,6,10.0,10.0,91,0.00,,,0.00,Wunderground v.1.15,2013-11-07 02:20:00,
2013-11-06 20:25:00,40.5,37.8,29.81,NNW,339,8.0,16.0,90,0.00,,,0.00,Wunderground v.1.15,2013-11-07 02:25:00,
2013-11-06 20:30:00,40.5,38.1,29.80,NNE,23,13.0,13.0,91,0.00,,,0.00,Wunderground v.1.15,2013-11-07 02:30:00,
2013-11-06 20:35:00,40.6,38.2,29.80,North,356,11.0,18.0,91,0.00,,,0.00,Wunderground v.1.15,2013-11-07 02:35:00,
2013-11-06 20:40:00,40.4,38.0,29.81,NNW,339,5.0,10.0,91,0.00,,,0.00,Wunderground v.1.15,2013-11-07 02:40:00,
2013-11-06 20:45:00,40.3,37.9,29.81,North,4,10.0,12.0,91,0.00,,,0.00,Wunderground v.1.15,2013-11-07 02:45:00,
2013-11-06 20:50:00,40.4,38.3,29.82,North,356,7.0,10.0,92,0.00,,,0.00,Wunderground v.1.15,2013-11-07 02:50:00,
2013-11-06 20:55:00,40.4,38.0,29.82,NNW,338,15.0,15.0,91,0.00,,,0.00,Wunderground v.1.15,2013-11-07 02:55:00,
2013-11-06 21:00:00,40.5,37.8,29.82,NNW,345,9.0,15.0,90,0.00,,,0.00,Wunderground v.1.15,2013-11-07 03:00:00,
2013-11-06 21:05:00,40.4,37.7,29.83,NNW,340,11.0,17.0,90,0.00,,,0.00,Wunderground v.1.15,2013-11-07 03:05:00,
2013-11-06 21:10:00,40.3,37.6,29.82,NNE,27,13.0,19.0,90,0.00,,,0.00,Wunderground v.1.15,2013-11-07 03:10:00,
2013-11-06 21:15:00,40.5,38.1,29.81,North,5,15.0,21.0,91,0.00,,,0.00,Wunderground v.1.15,2013-11-07 03:15:00,
2013-11-06 21:20:00,40.6,37.9,29.82,NNW,348,17.0,17.0,90,0.00,,,0.00,Wunderground v.1.15,2013-11-07 03:20:00,
2013-11-06 21:25:00,40.5,37.5,29.82,NNE,14,11.0,18.0,89,0.00,,,0.00,Wunderground v.1.15,2013-11-07 03:25:00,
2013-11-06 21:30:00,40.4,37.4,29.83,North,350,11.0,12.0,89,0.00,,,0.00,Wunderground v.1.15,2013-11-07 03:30:00,
2013-11-06 21:35:00,40.5,37.5,29.83,North,349,6.0,15.0,89,0.00,,,0.00,Wunderground v.1.15,2013-11-07 03:35:00,
2013-11-06 21:40:00,40.5,37.5,29.84,NNE,27,7.0,9.0,89,0.00,,,0.00,Wunderground v.1.15,2013-11-07 03:40:00,
2013-11-06 21:45:00,40.6,37.3,29.83,NNW,345,10.0,13.0,88,0.00,,,0.00,Wunderground v.1.15,2013-11-07 03:45:00,
2013-11-06 21:50:00,40.5,37.2,29.83,North,1,10.0,14.0,88,0.00,,,0.00,Wunderground v.1.15,2013-11-07 03:50:00,
2013-11-06 21:55:00,40.5,37.5,29.83,NNW,339,6.0,14.0,89,0.00,,,0.00,Wunderground v.1.15,2013-11-07 03:55:00,
2013-11-06 22:00:00,40.5,37.5,29.83,North,349,7.0,9.0,89,0.00,,,0.00,Wunderground v.1.15,2013-11-07 04:00:00,
2013-11-06 22:05:00,40.5,37.2,29.83,North,354,6.0,9.0,88,0.00,,,0.00,Wunderground v.1.15,2013-11-07 04:05:00,
2013-11-06 22:10:00,40.6,37.3,29.84,NNW,341,7.0,9.0,88,0.00,,,0.00,Wunderground v.1.15,2013-11-07 04:10:00,
2013-11-06 22:16:00,40.6,37.3,29.83,North,5,9.0,9.0,88,0.00,,,0.00,Wunderground v.1.15,2013-11-07 04:16:00,
2013-11-06 22:21:00,40.6,37.3,29.83,NNW,341,11.0,11.0,88,0.00,,,0.00,Wunderground v.1.15,2013-11-07 04:21:00,
2013-11-06 22:26:00,40.4,36.8,29.83,NNW,328,5.0,11.0,87,0.00,,,0.00,Wunderground v.1.15,2013-11-07 04:26:00,
2013-11-06 22:31:00,40.4,36.8,29.84,NW,326,6.0,9.0,87,0.00,,,0.00,Wunderground v.1.15,2013-11-07 04:31:00,
2013-11-06 22:36:00,40.3,36.4,29.84,NNW,333,6.0,12.0,86,0.00,,,0.00,Wunderground v.1.15,2013-11-07 04:36:00,
2013-11-06 22:41:00,40.1,36.0,29.84,North,4,9.0,13.0,85,0.00,,,0.00,Wunderground v.1.15,2013-11-07 04:41:00,
2013-11-06 22:46:00,40.1,36.5,29.84,NNW,342,9.0,13.0,87,0.00,,,0.00,Wunderground v.1.15,2013-11-07 04:46:00,
2013-11-06 22:51:00,40.0,36.2,29.84,NNW,345,9.0,9.0,86,0.00,,,0.00,Wunderground v.1.15,2013-11-07 04:51:00,
2013-11-06 22:56:00,39.9,36.1,29.84,North,1,8.0,10.0,86,0.00,,,0.00,Wunderground v.1.15,2013-11-07 04:56:00,
2013-11-06 23:01:00,39.8,36.0,29.84,North,7,9.0,11.0,86,0.00,,,0.00,Wunderground v.1.15,2013-11-07 05:01:00,
2013-11-06 23:06:00,39.8,36.0,29.84,North,351,6.0,11.0,86,0.00,,,0.00,Wunderground v.1.15,2013-11-07 05:06:00,
2013-11-06 23:11:00,39.7,35.9,29.84,NNW,328,4.0,7.0,86,0.00,,,0.00,Wunderground v.1.15,2013-11-07 05:11:00,
2013-11-06 23:16:00,39.6,35.8,29.84,North,7,7.0,11.0,86,0.00,,,0.00,Wunderground v.1.15,2013-11-07 05:16:00,
2013-11-06 23:21:00,39.5,35.7,29.85,North,7,5.0,10.0,86,0.00,,,0.00,Wunderground v.1.15,2013-11-07 05:21:00,
2013-11-06 23:26:00,39.5,36.0,29.85,NNW,345,4.0,10.0,87,0.00,,,0.00,Wunderground v.1.15,2013-11-07 05:26:00,
2013-11-06 23:31:00,39.4,35.6,29.85,NNW,335,4.0,9.0,86,0.00,,,0.00,Wunderground v.1.15,2013-11-07 05:31:00,
2013-11-06 23:36:00,39.3,35.8,29.85,NNW,334,7.0,13.0,87,0.00,,,0.00,Wunderground v.1.15,2013-11-07 05:36:00,
2013-11-06 23:41:00,39.1,35.3,29.85,NNW,336,5.0,6.0,86,0.00,,,0.00,Wunderground v.1.15,2013-11-07 05:41:00,
2013-11-06 23:46:00,39.0,35.2,29.86,NNW,336,5.0,8.0,86,0.00,,,0.00,Wunderground v.1.15,2013-11-07 05:46:00,
2013-11-06 23:51:00,38.9,35.4,29.86,NNW,338,4.0,8.0,87,0.00,,,0.00,Wunderground v.1.15,2013-11-07 05:51:00,
2013-11-06 23:56:00,38.8,35.3,29.86,East,89,4.0,10.0,87,0.00,,,0.00,Wunderground v.1.15,2013-11-07 05:56:00,